RH
35 30 36 32 45 55 52 49 46 34 22 16 9 4 2 16 65 76 86 80 90 94 99 100 32 20 23 21 31 91 74 61 47 49 36 17 3 4 12 19 41 70 94 96
36 30 29 31 38 47 57 49 49 37 25 17 10 5 2 10 57 98 81 74 100 100 100 98 20 26 26 38 30 39 70 67 59 57 36 28 4 3 9 16 29 56 91 97
39 29 29 27 35 39 49 48 48 40 28 18 13 6 2 5 66 80 88 98 100 100 100 48 20 32 33 76 84 30 66 70 73 64 36 24 4 3 7 14 23 44 91 96
43 32 31 30 31 32 40 50 44 37 31 20 13 6 2 5 62 95 98 98 100 100 98 35 23 35 35 80 79 55 93 79 82 60 44 27 5 3 6 12 21 38 82 97
50 37 33 28 31 31 36 42 38 30 32 24 14 10 3 2 66 100 100 100 100 100 100 36 30 38 42 72 80 75 99 100 95 85 49 26 5 2 5 12 18 28 74 93
57 48 42 33 33 31 34 34 36 30 30 27 16 9 6 1 42 100 100 100 93 100 100 100 100 35 35 45 100 75 74 100 100 100 50 19 6 3 5 10 15 30 71 94
60 54 43 36 34 31 41 41 41 37 31 28 17 10 7 1 52 100 100 100 99 100 100 62 78 39 29 21 100 100 99 95 94 66 47 14 7 3 5 10 16 26 42 78
62 60 46 40 35 33 38 48 40 37 26 23 16 10 6 2 8 100 100 90 99 100 73 31 93 31 22 23 94 73 61 63 50 49 27 15 6 3 6 10 15 23 32 72
73 71 54 44 43 35 31 43 37 33 25 19 15 10 6 4 1 58 100 100 100 100 98 100 59 34 21 23 71 64 65 52 62 40 16 14 5 3 6 10 14 30 74 85
67 63 53 47 40 36 28 40 40 32 26 16 16 7 6 6 3 4 60 100 100 100 100 54 27 44 27 52 82 79 70 62 30 18 20 12 4 4 6 10 18 39 60 83
66 63 53 46 37 40 29 33 38 34 27 15 14 8 6 6 5 2 23 77 100 100 100 93 8 30 53 63 61 43 38 21 18 22 17 10 13 4 8 11 17 26 74 89
70 55 52 42 40 40 28 30 34 32 27 18 13 11 7 7 6 6 1 22 90 100 100 100 95 9 10 11 13 15 15 15 17 14 10 6 4 5 8 12 18 54 73 98
69 51 46 41 39 37 33 32 34 34 27 20 14 16 8 6 5 8 5 4 46 58 96 100 100 100 46 8 8 9 10 10 9 8 6 5 4 6 8 12 17 25 52 95
72 56 50 38 36 34 32 34 39 35 28 20 14 15 7 5 6 7 8 1 31 64 97 100 100 100 100 100 67 19 8 8 9 6 5 5 5 6 8 12 22 55 77 86
90 72 57 45 37 31 34 40 40 36 28 20 15 12 7 6 5 5 7 4 7 77 42 87 100 100 100 100 100 100 100 100 99 59 85 45 6 29 18 18 23 50 67 94
90 86 63 47 37 32 37 40 42 36 28 19 14 12 8 6 5 5 7 5 1 11 54 41 91 100 99 100 100 100 100 100 97 100 98 100 100 12 32 22 28 54 66 72
95 94 78 52 39 34 38 40 42 36 29 20 14 11 9 6 5 7 8 6 2 1 21 46 36 77 100 99 100 100 100 96 100 94 64 38 98 54 19 27 31 41 78 64
97 92 71 55 45 39 38 41 40 36 28 19 16 11 8 5 5 5 8 7 2 1 2 49 53 54 72 96 99 100 99 99 100 69 100 100 100 85 41 25 28 35 61 55
92 78 63 55 45 41 42 41 40 36 27 21 17 10 6 6 5 5 6 6 2 1 1 3 73 72 56 52 79 95 99 99 99 98 88 99 98 95 79 78 54 72 80 96
74 51 55 55 46 44 42 42 40 33 29 23 17 8 7 6 5 5 6 4 2 1 1 1 5 72 74 49 55 72 93 90 100 100 100 100 95 100 100 100 97 92 72 98
65 51 56 49 43 44 45 42 38 35 28 22 13 9 8 7 6 6 6 3 1 1 1 1 1 13 74 69 53 53 60 63 79 98 100 97 75 100 93 85 87 97 99 98
64 57 54 46 44 45 41 40 36 36 28 22 14 10 8 7 7 7 6 2 1 1 1 1 1 1 34 86 70 48 48 50 45 65 88 100 100 100 98 88 95 92 95 94
64 58 57 49 45 37 37 41 42 37 30 26 16 12 10 8 7 8 5 2 1 2 2 2 2 2 2 74 93 81 72 54 48 47 60 68 92 96 96 100 100 100 95 99
72 69 60 50 40 36 37 41 42 39 33 25 18 14 11 9 8 8 5 2 1 2 2 2 2 2 2 3 84 100 99 84 64 53 54 63 66 73 86 95 100 100 100 100
82 70 61 49 44 43 42 43 46 41 34 26 19 15 12 10 10 8 3 2 2 2 2 2 2 2 2 2 5 83 100 100 100 81 62 67 78 76 81 76 99 100 97 96
79 71 65 57 54 49 46 48 50 42 35 27 20 16 13 11 12 8 2 2 2 3 2 3 3 3 2 2 6 57 100 100 100 100 100 76 78 81 84 86 71 96 100 100
87 77 70 64 62 52 54 55 54 45 36 28 23 21 15 14 12 6 2 3 3 3 3 4 4 3 3 3 3 60 100 100 100 100 100 100 100 100 98 100 93 67 69 91
Wind_Speed
54 56 61 66 65 63 65 68 69 73 76 79 77 76 62 51 59 64 66 69 75 65 51 51 46 32 29 25 39 52 60 61 61 59 64 79 97 114 121 121 111 105 97 92
50 55 59 63 67 63 63 68 69 73 75 80 77 78 75 58 61 67 67 76 77 63 51 53 40 28 27 18 23 52 61 66 60 56 64 74 92 111 119 119 111 108 98 81
50 55 58 62 63 65 61 66 69 71 73 76 79 79 78 63 64 70 73 82 79 61 53 55 41 26 26 16 19 38 59 64 58 51 63 73 88 107 117 116 110 106 104 79
51 55 59 60 60 65 62 64 66 71 72 75 80 80 81 69 69 72 76 87 78 60 59 53 46 27 28 15 13 39 52 59 55 49 63 71 85 102 113 115 110 108 104 82
51 53 57 59 60 63 64 63 65 70 71 72 77 79 79 75 69 70 78 85 79 67 69 61 54 37 26 10 9 35 40 57 53 49 62 69 85 98 111 115 111 101 97 88
50 54 60 60 60 63 63 63 65 69 71 71 74 74 78 73 65 61 74 81 75 75 66 69 67 45 25 5 12 34 35 44 54 54 64 75 85 96 109 111 103 102 102 91
48 52 56 58 58 63 65 65 64 69 71 72 76 80 82 76 63 62 71 81 77 72 77 69 70 45 20 3 23 28 35 44 50 50 69 80 82 93 106 105 102 100 95 86
47 51 54 56 58 60 62 60 62 64 68 69 71 73 76 75 64 58 65 77 72 60 65 62 64 43 19 1 26 22 27 39 49 72 77 81 83 93 102 101 100 94 92 89
43 46 50 53 56 57 59 57 59 61 64 65 65 67 71 73 67 56 56 66 76 65 58 60 55 41 22 10 24 25 37 51 63 70 78 77 82 92 100 99 92 91 84 86
40 43 47 52 53 53 56 56 55 59 60 63 61 63 69 71 69 58 55 60 66 67 60 48 38 34 21 21 29 37 42 50 61 72 72 72 79 89 94 92 92 90 86 90
38 42 46 49 51 51 53 53 54 55 57 59 57 59 63 69 70 64 52 53 56 65 54 63 43 31 25 20 17 23 39 55 65 67 67 69 73 78 87 84 83 79 81 60
38 40 43 46 47 47 49 50 52 50 52 56 54 54 58 64 70 65 55 45 43 53 57 51 40 40 38 29 25 35 49 54 54 56 60 62 66 74 80 80 78 83 80 62
36 38 43 44 44 45 47 47 49 48 48 51 51 52 57 61 66 63 56 42 35 40 50 42 30 45 48 44 37 34 36 43 49 53 54 54 59 68 72 73 74 74 78 68
37 37 41 42 43 43 45 45 46 46 46 48 48 49 53 57 61 57 53 40 32 29 30 34 28 25 33 25 44 49 45 46 48 49 49 49 53 56 61 64 68 73 72 60
37 38 40 43 42 42 44 44 45 44 43 46 45 44 49 53 58 59 49 41 27 18 23 23 22 29 25 24 31 30 34 39 42 34 43 37 46 52 54 59 63 71 70 63
36 36 38 41 40 41 42 41 41 41 40 43 42 39 47 53 57 56 48 39 29 17 12 14 14 9 24 33 35 30 37 35 26 41 48 46 42 49 47 53 56 60 62 62
39 40 38 40 39 39 39 40 40 38 39 41 39 38 45 53 56 52 47 37 29 21 11 7 13 18 14 16 21 26 19 21 28 30 30 30 34 32 44 46 51 55 54 61
43 39 37 40 38 38 38 39 38 37 38 39 38 38 45 52 55 55 45 37 32 20 14 14 14 13 9 9 14 26 29 21 25 32 29 33 33 34 36 39 44 49 54 62
38 35 38 39 36 37 36 38 37 34 36 38 36 41 46 51 56 55 49 38 33 27 17 19 25 20 16 11 16 19 23 23 26 26 36 28 24 21 25 28 41 41 49 52
32 35 38 34 34 34 35 37 34 34 37 37 37 41 47 51 55 56 51 42 35 28 21 21 28 33 30 24 19 18 25 30 28 28 41 36 24 31 29 32 31 26 41 52
31 34 31 31 32 34 36 35 33 34 35 34 37 42 47 52 54 53 51 47 43 35 22 22 28 37 37 33 31 25 25 27 32 33 32 30 26 27 33 41 42 33 32 36
32 28 29 29 32 34 35 33 32 34 35 34 37 43 48 53 57 56 51 49 46 35 27 23 27 36 47 45 47 42 36 32 30 34 36 42 42 41 35 32 33 41 34 38
26 28 28 29 31 32 33 33 32 33 34 36 40 45 49 53 57 57 56 54 46 41 33 25 25 31 43 54 56 52 49 44 43 42 41 41 44 45 42 41 41 36 32 35
28 29 28 29 30 30 31 32 31 33 34 36 41 46 51 55 57 57 56 55 48 43 37 30 27 30 35 52 62 61 56 51 53 52 49 48 46 42 42 42 42 38 41 43
29 29 28 29 30 30 30 32 31 33 35 37 41 46 51 56 59 60 59 56 51 46 39 32 29 29 33 39 60 65 64 61 57 56 56 54 51 48 43 42 42 41 42 43
30 29 30 31 31 32 33 33 32 34 36 38 42 47 51 56 59 60 59 57 52 46 39 33 29 27 29 33 50 64 59 60 62 56 55 57 55 55 52 47 44 45 43 43
32 29 30 33 32 34 34 34 34 35 37 39 43 47 51 55 58 59 59 55 51 45 40 34 29 25 24 30 41 63 60 57 60 62 56 56 52 51 52 51 48 42 44 45
Wind_Direction
352 357 353 351 349 347 348 352 357 358 356 356 355 356 353 348 347 342 345 344 342 335 326 329 338 323 309 281 230 214 206 207 206 209 205 202 204 205 203 204 205 201 198 201
355 357 355 352 349 347 348 351 354 358 358 355 356 355 354 349 350 344 347 347 347 338 329 339 344 333 323 292 242 217 202 204 204 207 203 201 199 202 201 204 202 200 200 195
353 355 355 355 348 348 348 347 351 357 358 356 355 354 356 354 351 350 347 350 350 343 344 348 351 344 330 306 263 210 198 201 201 204 194 196 194 199 200 202 200 198 201 195
348 352 356 351 350 349 348 346 350 354 359 356 355 357 357 355 357 352 349 353 353 353 353 352 356 350 345 314 251 191 195 197 198 195 190 193 189 195 198 199 199 199 202 195
343 349 351 351 350 348 346 347 349 352 357 359 357 357 356 357 359 352 352 359 356 352 360 3 0 356 344 313 209 187 190 193 194 192 189 189 186 191 195 198 198 199 200 198
339 344 349 349 347 347 346 346 348 350 357 359 358 358 358 1 1 357 358 2 356 358 359 357 355 352 346 264 179 188 188 187 194 192 186 186 182 187 193 197 196 193 199 202
338 341 348 346 346 346 343 346 348 351 356 359 358 357 357 2 6 4 1 360 357 357 353 352 358 356 1 239 178 172 184 188 189 194 179 180 178 184 191 193 193 194 198 203
337 338 345 344 343 345 343 343 346 349 353 359 -0 358 357 1 5 10 5 358 0 0 357 354 355 357 1 97 174 172 187 189 189 174 176 175 174 180 188 191 193 193 197 200
333 333 340 340 339 340 342 342 344 346 350 357 359 2 2 360 3 8 8 1 -0 2 13 357 358 359 10 127 161 161 159 165 169 169 171 170 172 178 186 189 190 190 193 198
329 328 335 336 336 337 341 342 342 343 348 354 358 2 6 4 2 2 10 8 0 5 3 19 13 27 52 110 136 145 159 165 164 165 167 167 169 177 185 186 187 190 194 200
326 326 331 334 335 335 339 342 341 342 345 351 355 359 5 6 4 3 6 16 4 8 14 19 37 46 55 84 124 154 162 159 163 165 163 159 164 174 181 184 187 186 197 192
322 326 327 333 331 332 335 340 339 340 343 348 350 354 1 1 3 2 2 4 8 3 11 7 37 61 76 82 113 138 147 155 159 159 154 155 162 173 178 181 184 189 194 194
316 323 327 329 328 330 333 336 336 336 340 345 346 351 358 359 -0 1 358 357 7 7 9 23 46 60 75 86 99 118 136 143 146 145 145 148 160 172 175 180 182 186 195 200
313 317 323 327 326 326 329 332 332 334 338 343 344 351 357 359 359 3 354 356 355 16 21 19 27 24 33 62 106 113 118 126 128 135 142 149 158 165 172 179 184 187 196 200
308 310 315 324 323 323 326 328 330 333 337 341 343 349 351 351 356 359 357 355 352 1 9 15 13 20 57 59 105 111 110 116 114 122 126 143 161 163 176 182 186 193 199 209
301 309 311 320 317 317 323 324 325 328 332 337 342 344 347 350 352 354 355 352 345 336 334 353 337 16 88 98 110 111 122 129 138 136 137 141 161 175 177 188 192 197 203 210
300 305 305 311 309 314 320 322 323 326 328 334 337 342 345 350 350 353 349 346 346 324 297 285 297 294 118 127 138 146 135 141 153 154 166 171 164 180 189 191 196 201 208 215
303 304 298 306 306 311 317 318 321 321 326 329 334 341 347 349 349 350 349 344 338 329 289 252 248 255 236 210 150 159 162 164 162 177 175 164 176 184 203 201 202 208 210 216
299 292 295 302 302 309 312 314 315 318 324 327 335 343 348 348 348 348 347 345 338 326 292 251 227 224 204 214 213 211 171 173 177 174 187 199 208 209 208 209 208 211 221 217
290 291 295 294 299 305 308 309 311 317 325 332 335 343 346 346 349 345 343 342 335 326 297 255 237 222 225 222 220 186 186 182 184 182 182 188 188 181 169 185 188 205 221 219
281 287 286 291 297 302 305 307 310 317 325 330 334 339 344 343 345 344 341 338 335 326 301 264 233 227 220 217 210 202 188 191 191 198 193 190 195 201 206 209 211 208 196 200
279 277 285 290 296 301 303 303 308 316 323 325 330 337 341 342 343 342 342 337 333 327 312 287 249 226 218 206 197 202 211 210 210 204 199 194 199 199 209 206 213 222 231 238
265 273 282 288 293 296 298 301 306 314 319 323 329 336 339 341 342 341 340 338 334 329 322 297 267 242 222 212 203 205 210 213 212 208 208 205 201 201 205 197 200 200 224 216
262 271 277 282 286 292 297 298 304 311 317 322 329 335 337 338 340 340 340 337 335 332 323 303 275 253 236 218 214 213 217 212 210 209 209 208 208 208 208 208 208 199 197 206
263 268 273 275 283 289 292 294 303 310 316 320 328 333 336 338 339 340 339 338 337 333 324 309 288 262 247 227 216 216 216 214 210 209 211 211 211 211 213 209 212 212 204 206
261 269 272 273 283 290 293 296 303 308 314 320 330 332 334 337 338 340 340 339 338 335 326 316 300 278 257 232 218 215 217 216 212 213 215 214 214 213 215 217 215 216 210 210
262 269 273 275 281 287 291 296 301 307 313 321 327 330 333 337 339 341 341 340 339 338 331 322 310 293 264 233 219 212 211 214 215 214 212 212 214 216 213 217 218 216 220 223